Location: Red Rock Farm
(35.2100°N, 97.2200°W)
Time: 13:49:42
(UTC-06:00)

ISS - All Passes

Search period start: 02 December 2016 00:00
Search period end: 12 December 2016 00:00
Orbit: 401 x 410 km, 51.6° (Epoch: 03 December)

Date Brightness Start Highest point End Pass type
(mag) Time Alt. Az. Time Alt. Az. Time Alt. Az.
02 Dec - 00:53:46 10° NW 00:56:56 41° NE 01:00:05 10° ESE night (unlit)
02 Dec - 02:31:11 10° W 02:33:09 15° SW 02:35:07 10° SSW night (unlit)
02 Dec - 17:31:22 10° SW 17:34:38 78° SE 17:37:56 10° NE daylight
02 Dec - 19:09:42 10° WNW 19:11:30 14° NNW 19:13:17 10° N visible
03 Dec - 00:02:11 10° NNW 00:04:56 23° NNE 00:07:39 10° E night (unlit)
03 Dec - 01:38:29 10° WNW 01:41:26 30° SW 01:44:23 10° SSE night (unlit)
03 Dec - 16:39:49 10° SSW 16:42:49 34° SE 16:45:51 10° ENE daylight
03 Dec - 18:16:46 10° W 18:19:22 21° NNW 18:22:00 10° NNE visible
03 Dec - 23:10:51 10° N 23:12:49 15° NNE 23:14:47 10° ENE night (unlit)
04 Dec - 00:46:21 10° NW 00:49:38 68° SW 00:52:54 10° SE night (unlit)
04 Dec - 15:48:54 10° S 15:51:04 17° SE 15:53:16 10° E daylight
04 Dec - 17:24:15 10° WSW 17:27:20 37° NW 17:30:27 10° NNE daylight
04 Dec - 23:54:28 10° NW 23:57:44 55° NE 00:00:59 10° ESE night (unlit)
05 Dec - 01:32:47 10° WSW 01:33:51 11° SW 01:34:54 10° SW night (unlit)
05 Dec - 16:32:07 10° SW 16:35:23 78° NW 16:38:40 10° NE daylight
05 Dec - 18:11:06 10° NW 18:12:21 12° NNW 18:13:37 10° N visible
05 Dec - 23:02:47 10° NNW 23:05:44 29° NE 23:08:39 10° E night (unlit)
06 Dec - 00:39:26 10° WNW 00:42:07 23° SW 00:44:47 10° S night (unlit)
06 Dec - 15:40:21 10° SSW 15:43:30 47° SE 15:46:40 10° ENE daylight
06 Dec - 17:17:50 10° WNW 17:20:10 18° NNW 17:22:31 10° NNE daylight
06 Dec - 22:11:18 10° NNW 22:13:37 17° NNE 22:15:56 10° ENE night (unlit)
06 Dec - 23:47:06 10° WNW 23:50:19 49° SW 23:53:30 10° SSE night (unlit)
07 Dec - 14:49:06 10° S 14:51:41 22° SE 14:54:18 10° ENE daylight
07 Dec - 16:25:08 10° W 16:28:03 29° NW 16:31:00 10° NNE daylight
07 Dec - 21:20:12 10° N 21:21:25 11° NNE 21:22:37 10° NE night (unlit)
07 Dec - 22:55:06 10° NW 22:58:24 75° NE 23:01:42 10° SE night (unlit)
08 Dec - 13:59:10 10° SE 13:59:56 11° SE 14:00:41 10° ESE daylight
08 Dec - 15:32:49 10° WSW 15:36:01 57° NW 15:39:17 10° NE daylight
08 Dec - 22:03:18 10° NNW 22:06:24 36° NE 22:09:29 10° ESE night (unlit)
08 Dec - 23:40:24 10° W 23:42:41 17° SW 23:44:57 10° S night (unlit)
09 Dec - 14:40:50 10° SW 14:44:04 65° SE 14:47:20 10° NE daylight
09 Dec - 16:18:53 10° WNW 16:20:52 15° NNW 16:22:52 10° N daylight
09 Dec - 21:11:41 10° NNW 21:14:18 21° NNE 21:16:53 10° E night (unlit)
09 Dec - 22:47:47 10° WNW 22:50:52 36° SW 22:53:54 10° SSE night (unlit)
10 Dec - 13:49:19 10° SSW 13:52:11 29° SE 13:55:05 10° ENE daylight
10 Dec - 15:25:57 10° W 15:28:41 24° NNW 15:31:25 10° NNE daylight
10 Dec - 20:20:21 10° N 20:22:05 13° NNE 20:23:49 10° ENE night (unlit)
10 Dec - 21:55:38 10° NW 21:58:57 81° SW 22:02:14 10° SE night (unlit)
11 Dec - 12:58:34 10° SSE 13:00:23 14° SE 13:02:12 10° E daylight
11 Dec - 14:33:26 10° WSW 14:36:34 43° NW 14:39:44 10° NE daylight
11 Dec - 21:03:44 10° NW 21:06:57 47° NE 21:10:08 10° ESE night (unlit)
11 Dec - 22:41:28 10° W 22:43:07 13° SW 22:44:46 10° SSW night (unlit)
